Location: Bonham
(33.5773°N, 96.1783°W)
Time: 00:31:45
(UTC+00:00)

Cosmos 1782 - Visible Passes

Search period start: 19 November 2025 00:00
Search period end: 29 November 2025 00:00
Orbit: 471 x 477 km, 82.5° (Epoch: 18 November)

Date Brightness Start Highest point End Pass type
(mag) Time Alt. Az. Time Alt. Az. Time Alt. Az.
19 Nov 5.8 12:22:40 10° ENE 12:23:46 11° ENE 12:24:52 10° E visible
22 Nov 4.5 12:31:33 10° NNE 12:34:48 32° E 12:38:02 10° SE visible
23 Nov 5.5 12:04:14 10° NNE 12:06:42 17° ENE 12:09:08 10° ESE visible
25 Nov 5.1 01:13:30 10° S 01:13:50 12° S 01:13:50 12° S visible
26 Nov 4.3 00:45:48 10° SSE 00:47:05 19° SE 00:47:05 19° SE visible
26 Nov 3.4 12:13:54 10° N 12:17:25 52° E 12:20:54 10° SSE visible
27 Nov 4.2 00:18:35 10° SE 00:20:19 17° ESE 00:20:19 17° ESE visible
27 Nov 5.5 01:53:16 10° WSW 01:54:32 15° WSW 01:54:32 15° WSW visible
27 Nov 4.8 11:46:12 10° NNE 11:49:16 26° E 11:52:20 10° SE visible
28 Nov 4.1 01:24:20 10° SW 01:27:36 33° W 01:27:42 33° WNW visible
28 Nov 5.6 11:19:01 10° NE 11:21:02 14° ENE 11:23:04 10° ESE visible
